Saint Bonnet de Bellac- Haute Vienne - France
Donnes mto: vendredi, 25/11/2011
Date Horaire Temp. E. Hum. E. P.atmo. Pluie Vent Direction Direction Ensoleilleme Solaire P. de rose Temp au vent Rafales
25/11/2011 00:00 3,0 C 91 % 1026,7 hPa 0,0 mm 0,0 km/h (0 Bft) S-SE 157 0 min 0 W/m 1,7 C 3,0 C 0,0 km/h (0 Bft)
25/11/2011 00:05 2,8 C 91 % 1026,7 hPa 0,0 mm 0,0 km/h (0 Bft) S-SE 157 0 min 0 W/m 1,5 C 2,8 C 0,0 km/h (0 Bft)
25/11/2011 00:10 2,8 C 91 % 1026,7 hPa 0,0 mm 0,0 km/h (0 Bft) NE 45 0 min 0 W/m 1,5 C 2,8 C 0,0 km/h (0 Bft)
25/11/2011 00:15 2,8 C 91 % 1026,8 hPa 0,0 mm 0,0 km/h (0 Bft) O 270 0 min 0 W/m 1,5 C 2,8 C 0,0 km/h (0 Bft)
25/11/2011 00:20 2,8 C 91 % 1026,7 hPa 0,0 mm 0,0 km/h (0 Bft) O 270 0 min 0 W/m 1,5 C 2,8 C 0,0 km/h (0 Bft)
25/11/2011 00:25 2,6 C 91 % 1026,7 hPa 0,0 mm 0,0 km/h (0 Bft) O 270 0 min 0 W/m 1,3 C 2,6 C 0,0 km/h (0 Bft)
25/11/2011 00:30 2,6 C 91 % 1026,7 hPa 0,0 mm 0,0 km/h (0 Bft) O 270 0 min 0 W/m 1,3 C 2,6 C 0,0 km/h (0 Bft)
25/11/2011 00:35 2,5 C 91 % 1026,6 hPa 0,0 mm 0,0 km/h (0 Bft) O 270 0 min 0 W/m 1,2 C 2,5 C 0,0 km/h (0 Bft)
25/11/2011 00:40 2,4 C 91 % 1026,5 hPa 0,0 mm 0,0 km/h (0 Bft) O 270 0 min 0 W/m 1,1 C 2,4 C 0,0 km/h (0 Bft)
25/11/2011 00:45 2,4 C 91 % 1026,4 hPa 0,0 mm 0,0 km/h (0 Bft) O 270 0 min 0 W/m 1,1 C 2,4 C 0,0 km/h (0 Bft)
25/11/2011 00:50 2,3 C 91 % 1026,4 hPa 0,0 mm 0,0 km/h (0 Bft) O 270 0 min 0 W/m 1,0 C 2,3 C 0,0 km/h (0 Bft)
25/11/2011 00:55 2,4 C 92 % 1026,5 hPa 0,0 mm 0,0 km/h (0 Bft) S 180 0 min 0 W/m 1,2 C 2,4 C 0,0 km/h (0 Bft)
25/11/2011 01:00 2,4 C 92 % 1026,4 hPa 0,0 mm 0,4 km/h (0 Bft) E-SE 112 0 min 0 W/m 1,2 C 2,4 C 0,4 km/h (0 Bft)
25/11/2011 01:05 2,6 C 92 % 1026,4 hPa 0,0 mm 0,0 km/h (0 Bft) SE 135 0 min 0 W/m 1,4 C 2,6 C 0,0 km/h (0 Bft)
25/11/2011 01:10 2,7 C 92 % 1026,5 hPa 0,0 mm 0,0 km/h (0 Bft) SE 135 0 min 0 W/m 1,5 C 2,7 C 0,0 km/h (0 Bft)
25/11/2011 01:15 2,6 C 92 % 1026,5 hPa 0,0 mm 0,0 km/h (0 Bft) S-SE 157 0 min 0 W/m 1,4 C 2,6 C 0,0 km/h (0 Bft)
25/11/2011 01:20 2,6 C 91 % 1026,6 hPa 0,0 mm 0,0 km/h (0 Bft) S-SE 157 0 min 0 W/m 1,3 C 2,6 C 0,0 km/h (0 Bft)
25/11/2011 01:25 2,3 C 91 % 1026,5 hPa 0,0 mm 0,0 km/h (0 Bft) S-SE 157 0 min 0 W/m 1,0 C 2,3 C 0,0 km/h (0 Bft)
25/11/2011 01:30 2,1 C 91 % 1026,5 hPa 0,0 mm 0,0 km/h (0 Bft) S-SE 157 0 min 0 W/m 0,8 C 2,1 C 0,0 km/h (0 Bft)
25/11/2011 01:35 1,9 C 91 % 1026,5 hPa 0,0 mm 0,0 km/h (0 Bft) S-SE 157 0 min 0 W/m 0,6 C 1,9 C 0,0 km/h (0 Bft)
25/11/2011 01:40 1,8 C 91 % 1026,5 hPa 0,0 mm 0,0 km/h (0 Bft) S-SE 157 0 min 0 W/m 0,5 C 1,8 C 0,0 km/h (0 Bft)
25/11/2011 01:45 1,7 C 92 % 1026,5 hPa 0,0 mm 0,0 km/h (0 Bft) S-SE 157 0 min 0 W/m 0,5 C 1,7 C 0,0 km/h (0 Bft)
25/11/2011 01:50 1,5 C 92 % 1026,4 hPa 0,0 mm 0,0 km/h (0 Bft) S-SE 157 0 min 0 W/m 0,3 C 1,5 C 0,0 km/h (0 Bft)
25/11/2011 01:55 1,4 C 92 % 1026,4 hPa 0,0 mm 0,0 km/h (0 Bft) S-SE 157 0 min 0 W/m 0,2 C 1,4 C 0,0 km/h (0 Bft)
25/11/2011 02:02 1,4 C 92 % 1026,4 hPa 0,0 mm 0,0 km/h (0 Bft) S-SE 157 0 min 0 W/m 0,2 C 1,4 C 0,0 km/h (0 Bft)
25/11/2011 02:05 1,4 C 92 % 1026,3 hPa 0,0 mm 0,0 km/h (0 Bft) S-SE 157 0 min 0 W/m 0,2 C 1,4 C 0,0 km/h (0 Bft)
25/11/2011 02:10 1,4 C 92 % 1026,4 hPa 0,0 mm 0,0 km/h (0 Bft) S-SE 157 0 min 0 W/m 0,2 C 1,4 C 0,0 km/h (0 Bft)
25/11/2011 02:15 1,4 C 92 % 1026,4 hPa 0,0 mm 0,0 km/h (0 Bft) S-SE 157 0 min 0 W/m 0,2 C 1,4 C 0,0 km/h (0 Bft)
25/11/2011 02:20 1,4 C 92 % 1026,4 hPa 0,0 mm 0,0 km/h (0 Bft) E 90 0 min 0 W/m 0,2 C 1,4 C 0,0 km/h (0 Bft)
25/11/2011 02:25 1,4 C 92 % 1026,4 hPa 0,0 mm 2,2 km/h (1 Bft) E 90 0 min 0 W/m 0,2 C 1,4 C 2,2 km/h (1 Bft)
25/11/2011 02:30 1,4 C 92 % 1026,3 hPa 0,0 mm 0,0 km/h (0 Bft) E-SE 112 0 min 0 W/m 0,2 C 1,4 C 0,0 km/h (0 Bft)
25/11/2011 02:35 1,4 C 92 % 1026,4 hPa 0,0 mm 2,9 km/h (1 Bft) E-SE 112 0 min 0 W/m 0,2 C 1,4 C 4,0 km/h (1 Bft)
25/11/2011 02:40 1,6 C 92 % 1026,6 hPa 0,0 mm 0,0 km/h (0 Bft) S-SE 157 0 min 0 W/m 0,4 C 1,6 C 0,0 km/h (0 Bft)
25/11/2011 02:45 1,6 C 92 % 1026,6 hPa 0,0 mm 0,7 km/h (0 Bft) E-SE 112 0 min 0 W/m 0,4 C 1,6 C 4,3 km/h (1 Bft)
25/11/2011 02:50 1,8 C 92 % 1026,7 hPa 0,0 mm 1,1 km/h (1 Bft) E-SE 112 0 min 0 W/m 0,6 C 1,8 C 4,0 km/h (1 Bft)
25/11/2011 02:55 1,8 C 92 % 1026,7 hPa 0,0 mm 1,1 km/h (1 Bft) E 90 0 min 0 W/m 0,6 C 1,8 C 4,0 km/h (1 Bft)
25/11/2011 03:00 1,7 C 92 % 1026,6 hPa 0,0 mm 0,0 km/h (0 Bft) E-NE 67 0 min 0 W/m 0,5 C 1,7 C 0,0 km/h (0 Bft)
25/11/2011 03:05 1,6 C 92 % 1026,7 hPa 0,0 mm 0,0 km/h (0 Bft) E-NE 67 0 min 0 W/m 0,4 C 1,6 C 0,0 km/h (0 Bft)
25/11/2011 03:10 1,5 C 92 % 1026,8 hPa 0,0 mm 0,0 km/h (0 Bft) E-NE 67 0 min 0 W/m 0,3 C 1,5 C 0,0 km/h (0 Bft)
25/11/2011 03:15 1,4 C 92 % 1026,8 hPa 0,0 mm 0,0 km/h (0 Bft) E-NE 67 0 min 0 W/m 0,2 C 1,4 C 0,0 km/h (0 Bft)
25/11/2011 03:20 1,3 C 92 % 1026,9 hPa 0,0 mm 0,0 km/h (0 Bft) E-NE 67 0 min 0 W/m 0,1 C 1,3 C 0,0 km/h (0 Bft)
25/11/2011 03:25 1,1 C 92 % 1026,8 hPa 0,1 mm 0,0 km/h (0 Bft) E-NE 67 0 min 0 W/m -0,1 C 1,1 C 0,0 km/h (0 Bft)
25/11/2011 03:30 0,9 C 91 % 1026,8 hPa 0,0 mm 0,0 km/h (0 Bft) E-NE 67 0 min 0 W/m -0,4 C 0,9 C 0,0 km/h (0 Bft)
25/11/2011 03:35 0,9 C 91 % 1026,8 hPa 0,0 mm 0,0 km/h (0 Bft) E-NE 67 0 min 0 W/m -0,4 C 0,9 C 0,0 km/h (0 Bft)
25/11/2011 03:40 0,8 C 92 % 1026,8 hPa 0,0 mm 0,0 km/h (0 Bft) E-NE 67 0 min 0 W/m -0,3 C 0,8 C 0,0 km/h (0 Bft)
25/11/2011 03:45 0,8 C 92 % 1026,7 hPa 0,0 mm 0,0 km/h (0 Bft) E-NE 67 0 min 0 W/m -0,3 C 0,8 C 0,0 km/h (0 Bft)
25/11/2011 03:50 0,8 C 92 % 1026,7 hPa 0,0 mm 0,0 km/h (0 Bft) E 90 0 min 0 W/m -0,3 C 0,8 C 0,0 km/h (0 Bft)
25/11/2011 03:55 0,7 C 92 % 1026,6 hPa 0,0 mm 0,0 km/h (0 Bft) E-SE 112 0 min 0 W/m -0,4 C 0,7 C 0,0 km/h (0 Bft)
25/11/2011 04:00 0,7 C 92 % 1026,6 hPa 0,0 mm 0,0 km/h (0 Bft) SE 135 0 min 0 W/m -0,4 C 0,7 C 0,0 km/h (0 Bft)
25/11/2011 04:05 0,8 C 92 % 1026,5 hPa 0,0 mm 0,0 km/h (0 Bft) E 90 0 min 0 W/m -0,3 C 0,8 C 0,0 km/h (0 Bft)
25/11/2011 04:10 0,6 C 92 % 1026,6 hPa 0,0 mm 0,0 km/h (0 Bft) E 90 0 min 0 W/m -0,5 C 0,6 C 0,0 km/h (0 Bft)
25/11/2011 04:15 0,6 C 92 % 1026,5 hPa 0,0 mm 0,0 km/h (0 Bft) E 90 0 min 0 W/m -0,5 C 0,6 C 0,0 km/h (0 Bft)
25/11/2011 04:20 0,5 C 92 % 1026,6 hPa 0,0 mm 0,0 km/h (0 Bft) E-SE 112 0 min 0 W/m -0,6 C 0,5 C 1,4 km/h (1 Bft)
25/11/2011 04:25 0,4 C 92 % 1026,5 hPa 0,0 mm 0,0 km/h (0 Bft) SE 135 0 min 0 W/m -0,7 C 0,4 C 0,0 km/h (0 Bft)
25/11/2011 04:30 0,4 C 92 % 1026,5 hPa 0,0 mm 0,0 km/h (0 Bft) E 90 0 min 0 W/m -0,7 C 0,4 C 0,0 km/h (0 Bft)
25/11/2011 04:35 0,4 C 92 % 1026,6 hPa 0,0 mm 0,7 km/h (0 Bft) E-SE 112 0 min 0 W/m -0,7 C 0,4 C 1,4 km/h (1 Bft)
25/11/2011 04:40 0,4 C 93 % 1026,6 hPa 0,0 mm 1,1 km/h (1 Bft) E 90 0 min 0 W/m -0,6 C 0,4 C 1,1 km/h (1 Bft)
25/11/2011 04:45 0,5 C 93 % 1026,6 hPa 0,0 mm 0,0 km/h (0 Bft) E 90 0 min 0 W/m -0,5 C 0,5 C 3,2 km/h (1 Bft)
25/11/2011 04:50 0,5 C 92 % 1026,6 hPa 0,0 mm 4,0 km/h (1 Bft) E-SE 112 0 min 0 W/m -0,6 C 0,5 C 6,5 km/h (2 Bft)
25/11/2011 04:55 0,6 C 93 % 1026,7 hPa 0,0 mm 0,0 km/h (0 Bft) SE 135 0 min 0 W/m -0,4 C 0,6 C 0,0 km/h (0 Bft)
25/11/2011 05:00 0,6 C 92 % 1026,8 hPa 0,0 mm 0,0 km/h (0 Bft) SE 135 0 min 0 W/m -0,5 C 0,6 C 0,0 km/h (0 Bft)
25/11/2011 05:05 0,5 C 92 % 1026,9 hPa 0,0 mm 0,0 km/h (0 Bft) E 90 0 min 0 W/m -0,6 C 0,5 C 0,0 km/h (0 Bft)
25/11/2011 05:10 0,5 C 92 % 1027,0 hPa 0,0 mm 0,0 km/h (0 Bft) SE 135 0 min 0 W/m -0,6 C 0,5 C 0,0 km/h (0 Bft)
25/11/2011 05:15 0,4 C 92 % 1027,0 hPa 0,0 mm 0,0 km/h (0 Bft) SE 135 0 min 0 W/m -0,7 C 0,4 C 0,0 km/h (0 Bft)
25/11/2011 05:20 0,3 C 92 % 1027,0 hPa 0,0 mm 0,0 km/h (0 Bft) SE 135 0 min 0 W/m -0,8 C 0,3 C 0,0 km/h (0 Bft)
25/11/2011 05:25 0,2 C 92 % 1027,1 hPa 0,0 mm 0,0 km/h (0 Bft) SE 135 0 min 0 W/m -0,9 C 0,2 C 0,0 km/h (0 Bft)
25/11/2011 05:30 0,1 C 92 % 1027,2 hPa 0,0 mm 0,0 km/h (0 Bft) SE 135 0 min 0 W/m -1,0 C 0,1 C 0,0 km/h (0 Bft)
25/11/2011 05:35 0,0 C 92 % 1027,2 hPa 0,0 mm 0,0 km/h (0 Bft) SE 135 0 min 0 W/m -1,1 C 0,0 C 0,0 km/h (0 Bft)
25/11/2011 05:40 -0,1 C 93 % 1027,3 hPa 0,0 mm 0,0 km/h (0 Bft) SE 135 0 min 0 W/m -1,1 C -0,1 C 0,0 km/h (0 Bft)
25/11/2011 05:45 -0,1 C 93 % 1027,3 hPa 0,0 mm 0,0 km/h (0 Bft) SE 135 0 min 0 W/m -1,1 C -0,1 C 0,0 km/h (0 Bft)
25/11/2011 05:50 -0,1 C 93 % 1027,2 hPa 0,0 mm 0,0 km/h (0 Bft) SE 135 0 min 0 W/m -1,1 C -0,1 C 0,0 km/h (0 Bft)
25/11/2011 05:55 0,0 C 93 % 1027,2 hPa 0,0 mm 0,0 km/h (0 Bft) SE 135 0 min 0 W/m -1,0 C 0,0 C 0,0 km/h (0 Bft)
25/11/2011 06:00 -0,1 C 93 % 1027,2 hPa 0,0 mm 0,0 km/h (0 Bft) SE 135 0 min 0 W/m -1,1 C -0,1 C 0,0 km/h (0 Bft)
25/11/2011 06:05 0,1 C 93 % 1027,2 hPa 0,0 mm 0,4 km/h (0 Bft) E-SE 112 0 min 0 W/m -0,9 C 0,1 C 3,6 km/h (1 Bft)
25/11/2011 06:10 0,2 C 93 % 1027,2 hPa 0,0 mm 0,0 km/h (0 Bft) E-SE 112 0 min 0 W/m -0,8 C 0,2 C 0,0 km/h (0 Bft)
25/11/2011 06:15 0,3 C 93 % 1027,2 hPa 0,0 mm 0,0 km/h (0 Bft) E-NE 67 0 min 0 W/m -0,7 C 0,3 C 0,0 km/h (0 Bft)
25/11/2011 06:20 0,3 C 93 % 1027,2 hPa 0,0 mm 1,8 km/h (1 Bft) E 90 0 min 0 W/m -0,7 C 0,3 C 3,2 km/h (1 Bft)
25/11/2011 06:25 0,4 C 93 % 1027,2 hPa 0,0 mm 0,0 km/h (0 Bft) E-NE 67 0 min 0 W/m -0,6 C 0,4 C 0,0 km/h (0 Bft)
25/11/2011 06:30 0,4 C 93 % 1027,2 hPa 0,0 mm 2,9 km/h (1 Bft) E-SE 112 0 min 0 W/m -0,6 C 0,4 C 4,0 km/h (1 Bft)
25/11/2011 06:35 0,5 C 93 % 1027,1 hPa 0,0 mm 1,4 km/h (1 Bft) E 90 0 min 0 W/m -0,5 C 0,5 C 3,2 km/h (1 Bft)
25/11/2011 06:40 0,6 C 93 % 1027,2 hPa 0,0 mm 0,0 km/h (0 Bft) E-NE 67 0 min 0 W/m -0,4 C 0,6 C 0,0 km/h (0 Bft)
25/11/2011 06:45 0,6 C 93 % 1027,1 hPa 0,0 mm 0,4 km/h (0 Bft) E 90 0 min 0 W/m -0,4 C 0,6 C 3,6 km/h (1 Bft)
25/11/2011 06:50 0,6 C 93 % 1027,1 hPa 0,0 mm 0,4 km/h (0 Bft) E 90 0 min 0 W/m -0,4 C 0,6 C 0,4 km/h (0 Bft)
25/11/2011 06:55 0,7 C 93 % 1027,3 hPa 0,0 mm 2,2 km/h (1 Bft) E 90 0 min 0 W/m -0,3 C 0,7 C 4,3 km/h (1 Bft)
25/11/2011 07:00 0,7 C 93 % 1027,3 hPa 0,0 mm 0,7 km/h (0 Bft) E-NE 67 0 min 0 W/m -0,3 C 0,7 C 4,3 km/h (1 Bft)
25/11/2011 07:05 0,6 C 93 % 1027,3 hPa 0,0 mm 2,9 km/h (1 Bft) E-SE 112 0 min 0 W/m -0,4 C 0,6 C 4,3 km/h (1 Bft)
25/11/2011 07:10 0,6 C 93 % 1027,3 hPa 0,0 mm 2,9 km/h (1 Bft) E-SE 112 0 min 0 W/m -0,4 C 0,6 C 4,0 km/h (1 Bft)
25/11/2011 07:15 0,8 C 93 % 1027,4 hPa 0,0 mm 0,0 km/h (0 Bft) E 90 0 min 0 W/m -0,2 C 0,8 C 0,0 km/h (0 Bft)
25/11/2011 07:20 0,7 C 93 % 1027,5 hPa 0,0 mm 0,0 km/h (0 Bft) NO 315 0 min 0 W/m -0,3 C 0,7 C 0,0 km/h (0 Bft)
25/11/2011 07:25 0,6 C 93 % 1027,6 hPa 0,0 mm 0,0 km/h (0 Bft) NO 315 0 min 0 W/m -0,4 C 0,6 C 0,0 km/h (0 Bft)
25/11/2011 07:30 0,4 C 93 % 1027,6 hPa 0,0 mm 0,0 km/h (0 Bft) N 360 0 min 0 W/m -0,6 C 0,4 C 0,0 km/h (0 Bft)
25/11/2011 07:35 0,4 C 93 % 1027,5 hPa 0,0 mm 2,9 km/h (1 Bft) E-SE 112 0 min 0 W/m -0,6 C 0,4 C 4,3 km/h (1 Bft)
25/11/2011 07:40 0,4 C 93 % 1027,5 hPa 0,0 mm 2,2 km/h (1 Bft) E-SE 112 0 min 0 W/m -0,6 C 0,4 C 4,0 km/h (1 Bft)
25/11/2011 07:45 0,4 C 93 % 1027,5 hPa 0,0 mm 0,0 km/h (0 Bft) E-NE 67 0 min 0 W/m -0,6 C 0,4 C 0,0 km/h (0 Bft)
25/11/2011 07:50 0,4 C 93 % 1027,6 hPa 0,0 mm 0,0 km/h (0 Bft) E-NE 67 0 min 0 W/m -0,6 C 0,4 C 0,0 km/h (0 Bft)
25/11/2011 07:55 0,4 C 93 % 1027,7 hPa 0,0 mm 0,0 km/h (0 Bft) E-NE 67 0 min 0 W/m -0,6 C 0,4 C 0,0 km/h (0 Bft)
25/11/2011 08:00 0,4 C 93 % 1027,8 hPa 0,0 mm 0,0 km/h (0 Bft) N-NE 22 0 min 0 W/m -0,6 C 0,4 C 0,0 km/h (0 Bft)
25/11/2011 08:05 0,4 C 93 % 1027,8 hPa 0,0 mm 0,0 km/h (0 Bft) E-NE 67 0 min 0 W/m -0,6 C 0,4 C 0,0 km/h (0 Bft)
25/11/2011 08:10 0,4 C 93 % 1027,9 hPa 0,0 mm 0,0 km/h (0 Bft) E-NE 67 0 min 0 W/m -0,6 C 0,4 C 0,0 km/h (0 Bft)
25/11/2011 08:15 0,3 C 93 % 1028,2 hPa 0,0 mm 0,0 km/h (0 Bft) E-NE 67 0 min 0 W/m -0,7 C 0,3 C 0,0 km/h (0 Bft)
25/11/2011 08:20 0,3 C 93 % 1028,4 hPa 0,0 mm 0,0 km/h (0 Bft) N 360 0 min 0 W/m -0,7 C 0,3 C 0,0 km/h (0 Bft)
25/11/2011 08:25 0,2 C 93 % 1028,6 hPa 0,0 mm 0,0 km/h (0 Bft) E-NE 67 0 min 0 W/m -0,8 C 0,2 C 0,0 km/h (0 Bft)
25/11/2011 08:30 0,2 C 93 % 1028,5 hPa 0,0 mm 0,0 km/h (0 Bft) E-NE 67 0 min 0 W/m -0,8 C 0,2 C 0,0 km/h (0 Bft)
25/11/2011 08:35 0,1 C 93 % 1028,4 hPa 0,0 mm 0,0 km/h (0 Bft) SE 135 0 min 0 W/m -0,9 C 0,1 C 0,0 km/h (0 Bft)
25/11/2011 08:40 0,1 C 93 % 1028,5 hPa 0,0 mm 0,0 km/h (0 Bft) S-SE 157 0 min 0 W/m -0,9 C 0,1 C 0,0 km/h (0 Bft)
25/11/2011 08:45 0,0 C 93 % 1028,4 hPa 0,0 mm 0,0 km/h (0 Bft) S-SE 157 0 min 0 W/m -1,0 C 0,0 C 0,0 km/h (0 Bft)
25/11/2011 08:50 0,1 C 93 % 1028,4 hPa 0,0 mm 0,0 km/h (0 Bft) S-SE 157 0 min 0 W/m -0,9 C 0,1 C 0,0 km/h (0 Bft)
25/11/2011 08:55 0,3 C 94 % 1028,9 hPa 0,0 mm 0,7 km/h (0 Bft) NO 315 0 min 0 W/m -0,5 C 0,3 C 0,7 km/h (0 Bft)
25/11/2011 09:00 0,5 C 94 % 1029,1 hPa 0,0 mm 0,0 km/h (0 Bft) NO 315 0 min 0 W/m -0,4 C 0,5 C 0,0 km/h (0 Bft)
25/11/2011 09:05 0,6 C 93 % 1029,3 hPa 0,0 mm 0,4 km/h (0 Bft) NO 315 0 min 0 W/m -0,4 C 0,6 C 3,2 km/h (1 Bft)
25/11/2011 09:10 0,8 C 93 % 1029,4 hPa 0,0 mm 0,0 km/h (0 Bft) NO 315 0 min 0 W/m -0,2 C 0,8 C 0,0 km/h (0 Bft)
25/11/2011 09:15 0,9 C 94 % 1029,4 hPa 0,0 mm 1,1 km/h (1 Bft) S-SO 202 0 min 0 W/m 0,0 C 0,9 C 3,2 km/h (1 Bft)
25/11/2011 09:20 1,4 C 94 % 1029,8 hPa 0,0 mm 0,0 km/h (0 Bft) O-SO 247 0 min 0 W/m 0,5 C 1,4 C 0,0 km/h (0 Bft)
25/11/2011 09:25 1,8 C 94 % 1029,7 hPa 0,0 mm 0,0 km/h (0 Bft) O-SO 247 0 min 0 W/m 0,9 C 1,8 C 0,0 km/h (0 Bft)
25/11/2011 09:30 2,0 C 94 % 1029,8 hPa 0,0 mm 0,0 km/h (0 Bft) O 270 0 min 0 W/m 1,1 C 2,0 C 0,0 km/h (0 Bft)
25/11/2011 09:35 2,2 C 94 % 1029,7 hPa 0,0 mm 0,0 km/h (0 Bft) S-SO 202 0 min 0 W/m 1,3 C 2,2 C 0,0 km/h (0 Bft)
25/11/2011 09:40 2,4 C 94 % 1030,0 hPa 0,0 mm 0,0 km/h (0 Bft) O-SO 247 0 min 0 W/m 1,5 C 2,4 C 0,0 km/h (0 Bft)
25/11/2011 09:45 2,5 C 94 % 1030,0 hPa 0,0 mm 0,0 km/h (0 Bft) O-SO 247 0 min 0 W/m 1,6 C 2,5 C 0,0 km/h (0 Bft)
25/11/2011 09:50 2,8 C 94 % 1030,3 hPa 0,0 mm 0,0 km/h (0 Bft) O-SO 247 0 min 0 W/m 1,9 C 2,8 C 0,0 km/h (0 Bft)
25/11/2011 09:55 2,9 C 94 % 1030,1 hPa 0,0 mm 3,6 km/h (1 Bft) O 270 0 min 0 W/m 2,0 C 2,9 C 7,6 km/h (2 Bft)
25/11/2011 10:00 3,1 C 94 % 1030,1 hPa 0,0 mm 0,0 km/h (0 Bft) SO 225 0 min 0 W/m 2,2 C 3,1 C 0,0 km/h (0 Bft)
25/11/2011 10:05 3,3 C 94 % 1029,6 hPa 0,0 mm 1,4 km/h (1 Bft) SO 225 0 min 0 W/m 2,4 C 3,3 C 4,0 km/h (1 Bft)
25/11/2011 10:10 3,4 C 94 % 1029,8 hPa 0,0 mm 0,0 km/h (0 Bft) S-SO 202 0 min 0 W/m 2,5 C 3,4 C 0,0 km/h (0 Bft)
25/11/2011 10:15 3,5 C 94 % 1029,6 hPa 0,0 mm 3,6 km/h (1 Bft) S 180 0 min 0 W/m 2,6 C 3,5 C 7,2 km/h (2 Bft)
25/11/2011 10:20 3,6 C 95 % 1029,8 hPa 0,0 mm 0,0 km/h (0 Bft) SO 225 0 min 0 W/m 2,9 C 3,6 C 0,0 km/h (0 Bft)
25/11/2011 10:25 3,7 C 94 % 1029,8 hPa 0,0 mm 0,0 km/h (0 Bft) O-SO 247 0 min 0 W/m 2,8 C 3,7 C 0,0 km/h (0 Bft)
25/11/2011 10:30 3,8 C 94 % 1029,7 hPa 0,0 mm 0,0 km/h (0 Bft) S-SO 202 0 min 0 W/m 2,9 C 3,8 C 0,0 km/h (0 Bft)
25/11/2011 10:35 3,9 C 94 % 1029,6 hPa 0,0 mm 1,8 km/h (1 Bft) S 180 0 min 0 W/m 3,0 C 3,9 C 4,0 km/h (1 Bft)
_ Min-Heure 06:00 03:35 02:30 - 10:30 - - - - 05:35 06:00 10:30
Minimum _ -0,1 C 91 % 1026,3 hPa - 0,0 km/h (0 Bft) - - - - -1,1 C -0,1 C 0,0 km/h (0 Bft)
_ Max-Heure 10:35 10:20 09:50 03:25 04:50 - - 10:35 10:35 10:35 10:35 09:55
Maximum _ 3,9 C 95 % 1030,3 hPa 0,1 mm 4,0 km/h
E-SE (1 Bft)
- - 0 min 0 W/m 3,0 C 3,9 C 7,6 km/h
O (2 Bft)
Moyenne _ 1,2 C 93 % 1027,4 hPa #0,1 mm 0,4 km/h (0 Bft) E-NE - #0 min. 0 W/m 0,2 C 1,2 C 0,8 km/h (0 Bft)
Saint Bonnet de Bellac- Haute Vienne - France